Location: Gleizolles
(44.4833°N, 6.7667°E)
Time: 20:26:17
(UTC+00:00)

Envisat - Pass Details

Date: 02 December 2022
Orbit: 763 x 765 km, 98.2° (Epoch: 05 February)

Event Time Altitude Azimuth Distance (km) Brightness Sun altitude
Rises 03:18:01 0° 19° (NNE) 3,243 6.5 -37.1°
Reaches altitude 10° 03:20:26 10° 26° (NNE) 2,312 5.8 -36.7°
Enters shadow 03:21:10 14° 29° (NNE) 2,044 5.5 -36.5°
